TimeEST,TemperatureF,Dew PointF,Humidity,Sea Level PressureIn,VisibilityMPH,Wind Direction,Wind SpeedMPH,Gust SpeedMPH,PrecipitationIn,Events,Conditions,WindDirDegrees,DateUTC
12:15 AM,39.2,37.4,93,30.29,10.0,Calm,Calm,-,N/A,Rain,Light Rain,0,2012-12-07 05:15:00
12:55 AM,37.4,35.6,93,30.27,10.0,Calm,Calm,-,N/A,,Overcast,0,2012-12-07 05:55:00
1:15 AM,37.4,35.6,93,30.27,10.0,Calm,Calm,-,N/A,,Mostly Cloudy,0,2012-12-07 06:15:00
1:35 AM,37.4,37.4,100,30.27,10.0,Calm,Calm,-,N/A,,Overcast,0,2012-12-07 06:35:00
1:55 AM,37.4,37.4,100,30.27,10.0,Calm,Calm,-,N/A,,Overcast,0,2012-12-07 06:55:00
2:15 AM,37.4,37.4,100,30.27,10.0,Calm,Calm,-,N/A,,Overcast,0,2012-12-07 07:15:00
2:35 AM,37.4,35.6,93,30.26,10.0,Calm,Calm,-,N/A,,Overcast,0,2012-12-07 07:35:00
2:55 AM,39.2,35.6,87,30.26,10.0,Calm,Calm,-,N/A,,Overcast,0,2012-12-07 07:55:00
3:15 AM,39.2,35.6,87,30.25,10.0,Calm,Calm,-,N/A,,Overcast,0,2012-12-07 08:15:00
3:35 AM,39.2,37.4,93,30.24,10.0,Calm,Calm,-,N/A,,Overcast,0,2012-12-07 08:35:00
3:55 AM,39.2,37.4,93,30.24,10.0,Calm,Calm,-,N/A,,Overcast,0,2012-12-07 08:55:00
4:15 AM,39.2,37.4,93,30.24,10.0,Calm,Calm,-,N/A,,Overcast,0,2012-12-07 09:15:00
4:35 AM,39.2,37.4,93,30.24,10.0,Calm,Calm,-,N/A,,Overcast,0,2012-12-07 09:35:00
4:55 AM,39.2,37.4,93,30.24,10.0,Calm,Calm,-,N/A,,Overcast,0,2012-12-07 09:55:00
5:15 AM,39.2,37.4,93,30.24,10.0,Calm,Calm,-,N/A,,Overcast,0,2012-12-07 10:15:00
5:35 AM,39.2,37.4,93,30.24,10.0,Calm,Calm,-,N/A,,Overcast,0,2012-12-07 10:35:00
5:55 AM,39.2,37.4,93,30.24,10.0,Calm,Calm,-,N/A,,Overcast,0,2012-12-07 10:55:00
6:15 AM,39.2,37.4,93,30.24,10.0,Calm,Calm,-,N/A,,Overcast,0,2012-12-07 11:15:00
6:35 AM,39.2,37.4,93,30.23,10.0,Calm,Calm,-,N/A,,Overcast,0,2012-12-07 11:35:00
6:55 AM,41.0,37.4,87,30.24,10.0,Calm,Calm,-,N/A,,Overcast,0,2012-12-07 11:55:00
7:15 AM,41.0,37.4,87,30.23,10.0,Calm,Calm,-,N/A,,Overcast,0,2012-12-07 12:15:00
7:35 AM,41.0,37.4,87,30.23,10.0,Calm,Calm,-,N/A,,Overcast,0,2012-12-07 12:35:00
7:55 AM,42.8,39.2,87,30.22,10.0,Calm,Calm,-,N/A,,Overcast,0,2012-12-07 12:55:00
8:15 AM,42.8,39.2,87,30.23,10.0,Calm,Calm,-,N/A,,Overcast,0,2012-12-07 13:15:00
8:35 AM,44.6,39.2,81,30.23,10.0,Calm,Calm,-,N/A,,Overcast,0,2012-12-07 13:35:00
8:55 AM,44.6,39.2,81,30.23,10.0,Calm,Calm,-,N/A,,Overcast,0,2012-12-07 13:55:00
9:15 AM,44.6,39.2,81,30.23,10.0,Calm,Calm,-,N/A,,Overcast,0,2012-12-07 14:15:00
9:35 AM,44.6,41.0,87,30.23,10.0,Calm,Calm,-,N/A,,Overcast,0,2012-12-07 14:35:00
9:55 AM,46.4,41.0,81,30.24,10.0,Calm,Calm,-,N/A,,Overcast,0,2012-12-07 14:55:00
10:15 AM,46.4,42.8,87,30.23,10.0,Calm,Calm,-,N/A,,Overcast,0,2012-12-07 15:15:00
10:35 AM,46.4,42.8,87,30.22,10.0,Calm,Calm,-,N/A,,Overcast,0,2012-12-07 15:35:00
10:55 AM,48.2,42.8,82,30.21,10.0,Calm,Calm,-,N/A,,Overcast,0,2012-12-07 15:55:00
11:15 AM,51.8,44.6,76,30.20,10.0,Calm,Calm,-,N/A,,Overcast,0,2012-12-07 16:15:00
11:35 AM,51.8,44.6,76,30.18,10.0,Calm,Calm,-,N/A,,Mostly Cloudy,0,2012-12-07 16:35:00
11:55 AM,51.8,44.6,76,30.18,10.0,Calm,Calm,-,N/A,,Overcast,0,2012-12-07 16:55:00
12:15 PM,51.8,44.6,76,30.17,7.0,Calm,Calm,-,0.01,Rain,Rain,0,2012-12-07 17:15:00
12:35 PM,50.0,46.4,87,30.16,10.0,North,3.5,-,0.03,Rain,Light Rain,350,2012-12-07 17:35:00
12:55 PM,48.2,46.4,93,30.15,10.0,Calm,Calm,-,0.01,Rain,Rain,0,2012-12-07 17:55:00
1:15 PM,50.0,46.4,87,30.14,10.0,Calm,Calm,-,0.01,Rain,Light Rain,0,2012-12-07 18:15:00
1:35 PM,50.0,46.4,87,30.13,10.0,Calm,Calm,-,0.01,,Light Drizzle,0,2012-12-07 18:35:00
1:55 PM,50.0,48.2,94,30.12,10.0,Calm,Calm,-,N/A,Rain,Light Rain,0,2012-12-07 18:55:00
2:57 PM,48.2,48.2,100,30.11,7.0,Calm,Calm,-,0.01,Rain,Rain,0,2012-12-07 19:57:00
3:17 PM,48.2,48.2,100,30.11,10.0,Calm,Calm,-,0.01,,Overcast,0,2012-12-07 20:17:00
4:38 PM,48.2,48.2,100,30.10,10.0,Calm,Calm,-,N/A,,Overcast,0,2012-12-07 21:38:00
4:59 PM,48.2,48.2,100,30.09,10.0,Calm,Calm,-,N/A,,Light Drizzle,0,2012-12-07 21:59:00
5:38 PM,48.2,48.2,100,30.09,7.0,Calm,Calm,-,N/A,Rain,Light Rain,0,2012-12-07 22:38:00
6:18 PM,48.2,48.2,100,30.09,7.0,Calm,Calm,-,N/A,,Overcast,0,2012-12-07 23:18:00
7:39 PM,48.2,48.2,100,30.09,7.0,Calm,Calm,-,N/A,,Overcast,0,2012-12-08 00:39:00
8:58 PM,48.2,48.2,100,30.07,7.0,Calm,Calm,-,N/A,,Overcast,0,2012-12-08 01:58:00
9:37 PM,48.2,48.2,100,30.07,10.0,Calm,Calm,-,N/A,,Overcast,0,2012-12-08 02:37:00
9:58 PM,48.2,48.2,100,30.06,10.0,Calm,Calm,-,N/A,,Overcast,0,2012-12-08 02:58:00
10:17 PM,48.2,48.2,100,30.06,10.0,Calm,Calm,-,N/A,,Overcast,0,2012-12-08 03:17:00
10:38 PM,48.2,48.2,100,30.06,10.0,Calm,Calm,-,N/A,,Overcast,0,2012-12-08 03:38:00
10:58 PM,48.2,48.2,100,30.06,10.0,Calm,Calm,-,N/A,,Overcast,0,2012-12-08 03:58:00
11:19 PM,48.2,48.2,100,30.05,10.0,Calm,Calm,-,N/A,,Overcast,0,2012-12-08 04:19:00
11:59 PM,48.2,48.2,100,30.05,10.0,Calm,Calm,-,N/A,,Overcast,0,2012-12-08 04:59:00